sat.trackr.live / text

‹ back to catalog

LKW-1

NORAD 43034 · 2017-077A

PAYLOAD ACTIVE UNKNOWN

§ Identity

Operator
Country
PRC
Launch date
2017-12-03
Launch site
JSC
Launch vehicle
Mass (kg)
RCS (m²)

External: N2YO · Heavens-Above · Gunter

§ Orbital elements

Epoch: 2026-09-20T05:16:26.615136Z

Period
94.44 min
Inclination
97.0937°
Eccentricity
0.0001947
Mean motion
15.24753798 rev/d
Perigee alt
490.2 km
Apogee alt
492.9 km
Semi-major
6,869.7 km
B*
1.5438e-4
RAAN
292.4380°
Arg perigee
110.0283°
Mean anomaly
250.1165°
Rev number
48,917

§ Raw data

LKW-11 43034U 17077A   26263.21975249  .00003757  00000+0  15438-3 0  99992 43034  97.0937 292.4380 0001947 110.0283 250.1165 15.24753798489175

JSON: /api/v1/satellites/43034 · /tle

For live sub-satellite position, see the globe view (requires WebGL).

§ Visibility from observer

Set your observer location to see the next 7 days of passes ≥ 10°. The values pass through the URL so the page stays shareable.

No JS? Fill the form by hand. The geolocation button needs JavaScript.

§ Radio — SatNOGS DB

ModeDescriptionDownlinkUplink
FM S-band telemetry 2.207 GHz

1 transmitter · refreshed weekly from db.satnogs.org